Weather Roundup
Issued by NWS Chicago, IL

Home | Current Version | Previous Version | Text Only | Print | Product List | Glossary On
Versions: 1 2 3 4 5 6 7 8 9 10 11 12 13 14 15 16 17 18 19 20 21 22 23 24 25 26 27 28 29 30 31 32 33 34 35 36 37 38 39 40 41 42 43 44 45 46 47 48 49 50
000
NZUS59 KLOT 252108
HRRLOT

CHICAGO AREA WEATHER ROUNDUP
NATIONAL WEATHER SERVICE CHICAGO/ROMEOVILLE IL
400 PM CDT THU AUG 25 2016

NOTE: "FAIR" INDICATES FEW OR NO CLOUDS BELOW 12,000 FEET WITH NO
SIGNIFICANT WEATHER AND/OR OBSTRUCTIONS TO VISIBILITY.

* THESE STATIONS ARE NOT UNDER NWS QUALITY CONTROL. THEY ALSO MAY NOT
  REPORT WEATHER SUCH AS PRECIPITATION OR FOG.

ILZ005-006-012>014-019>023-252200-
NORTHEAST ILLINOIS

CITY           SKY/WX    TMP DP  RH WIND       PRES   REMARKS
OHARE          CLOUDY    82  63  52 W6        30.02S HX  83
MIDWAY         PTSUNNY   85  65  51 SW9       30.01F HX  86
AURORA         CLOUDY    80  68  66 W7        30.04F HX  83
LANSING*       MOSUNNY   83  68  59 W8        30.02F HX  86
JOLIET*        CLOUDY    83  68  59 W6        30.03F HX  86
WAUKEGAN       CLOUDY    81  60  48 W6        30.02S HX  82
DUPAGE AIRPORT CLOUDY    80  65  59 VRB5      30.03F HX  82
WHEELING       CLOUDY    83  64  52 W6        30.03S HX  84
KANKAKEE*      MOSUNNY   83  72  68 SW6       30.04F HX  89
MORRIS*        CLOUDY    82  69  63 NW8       30.03S HX  86
LEWIS AIRPORT* CLOUDY    80  70  71 W7        30.03F HX  83
NORTHERLY ISL    N/A     76  69  79 SE2         N/A
$$

WIZ051-052-058>065-066-070>072-252200-
SOUTHEAST WISCONSIN

CITY           SKY/WX    TMP DP  RH WIND       PRES   REMARKS
MILWAUKEE      PTSUNNY   80  62  54 E6        30.01F HX  81
KENOSHA*       CLOUDY    80  63  55 W10       30.03S HX  81
RACINE*        CLOUDY    80  62  54 CALM      30.03F HX  81
BURLINGTON     CLOUDY    77  59  54 W9        30.04S
WAUKESHA       SUNNY     75  59  57 W10       30.04F
$$

INZ001>003-010>013-019-020-252200-
NORTHWEST INDIANA

CITY           SKY/WX    TMP DP  RH WIND       PRES   REMARKS
GARY*          NOT AVBL
MICHIGAN CITY* NOT AVBL
RENSSELAER*    NOT AVBL
VALPARAISO     PTSUNNY   80  70  71 W6        30.04S HX  83
$$

LMZ740>746-252200-
SOUTHERN LAKE MICHIGAN

STATION/POSITION TIME  SKY/WX   TEMP WIND        PRES    VSBY
                                AIR  DIR/SP/G
                 (UTC)          (F)  (DEG/KT/KT) (MB)    (MI)
HARRISON CRIB    2000            75  130/  8/  9   N/A
BURNHAM HARBOR   2100            76  140/  2/  4   N/A
CALUMET HARBOR   2000            74   50/  8/  9 1016.4F
BURNS HARBOR     2017            75   40/  4/  6 1017.6F
MICHIGAN CITY    2000            76  330/  4/  5   N/A
$$

ABBREVIATIONS USED IN REMARKS
   TC - TEMPERATURE IN CELSIUS
  WCI - WIND CHILL INDEX
   HX - HEAT INDEX
  VSB - VISIBILITY
$$




USA.gov is the U.S. government's official web portal to all federal, state and local government web resources and services.